Temperature
20 20 20 20 23 24 23 23 23 22 22 22 22 22 22 22 22 20 17 17 17 17 17 17 17 17 17 17 17 17 17 17 17 17 17 17 17 17 17 17 17 17 17 17 17 17 17 17 17
19 20 20 22 24 23 23 23 22 22 22 21 21 22 22 20 19 18 17 17 17 17 17 17 17 17 17 17 17 17 17 17 17 17 17 17 17 16 16 16 16 16 16 17 17 17 17 17 17
20 20 21 24 24 23 22 23 22 22 21 21 21 20 20 19 18 17 17 17 17 17 17 17 17 17 17 17 17 17 17 17 17 16 16 16 16 16 16 16 16 16 16 16 16 16 17 17 17
20 20 22 24 23 23 23 23 22 22 21 21 21 21 19 18 18 17 17 17 17 17 16 17 17 17 17 17 17 16 16 16 16 16 16 16 16 16 16 16 16 15 16 16 16 16 16 16 17
20 22 23 23 22 23 23 22 22 23 22 21 21 20 18 17 17 17 17 17 17 17 16 16 17 16 16 16 16 16 16 16 16 16 16 16 16 16 15 15 15 15 15 15 16 16 16 16 16
21 23 23 23 22 22 22 22 22 22 21 21 21 20 18 17 17 17 17 17 17 17 16 16 17 16 16 16 16 16 16 16 16 16 16 16 16 16 16 16 15 15 15 15 16 16 16 16 16
22 23 23 23 22 22 22 22 22 22 22 21 21 20 18 17 17 17 17 17 17 17 16 16 16 16 16 16 16 16 16 16 16 16 16 16 16 16 16 15 15 15 15 15 15 16 16 16 16
21 23 23 23 23 22 22 22 21 22 21 20 20 20 19 17 17 17 17 17 17 17 17 16 16 16 16 16 16 16 16 16 16 16 16 16 15 15 15 15 15 15 15 15 15 15 16 16 16
20 23 23 23 23 22 22 22 21 21 21 20 20 20 19 17 17 17 17 17 17 17 17 17 16 16 16 16 16 16 16 16 16 15 15 15 15 15 15 15 15 15 15 15 15 15 16 16 16
22 23 22 22 23 23 22 22 21 21 21 20 19 19 18 18 18 18 18 18 18 17 17 17 17 17 16 16 16 16 16 15 15 15 15 15 15 15 15 15 15 15 15 15 15 15 15 16 16
22 22 22 22 22 22 22 21 21 22 22 21 20 19 18 18 18 19 18 18 18 17 17 17 17 17 17 16 16 16 16 15 15 15 15 15 15 15 15 15 15 15 15 15 15 15 15 15 15
22 21 21 21 21 21 22 21 21 21 21 20 20 19 19 19 19 19 19 18 18 18 17 17 17 17 17 16 16 16 16 15 15 15 15 15 15 15 15 15 15 15 15 15 15 15 15 15 16
21 21 20 20 20 20 21 21 21 20 20 20 19 19 19 19 19 19 19 18 18 18 17 17 17 17 17 16 16 16 15 16 15 15 15 15 15 15 15 15 14 15 15 15 15 15 15 15 15
21 21 20 20 20 20 21 21 21 20 19 19 19 19 19 19 19 19 19 18 18 18 17 17 17 17 16 16 16 16 16 15 15 15 15 15 15 15 15 15 14 15 15 15 15 15 15 15 15
21 21 21 20 20 20 21 21 20 19 19 20 19 19 19 19 19 19 19 19 18 18 17 17 17 17 16 16 16 16 15 15 15 15 15 15 15 15 15 15 15 15 15 15 15 15 15 15 15
21 21 21 20 20 20 21 20 20 19 20 20 20 19 19 18 19 19 18 18 18 18 17 17 17 17 16 16 16 16 15 15 15 15 15 15 15 15 15 14 15 14 14 15 15 15 15 15 15
21 21 21 20 20 20 21 20 19 19 19 20 20 19 19 19 19 18 18 18 18 18 17 17 17 16 16 16 16 16 15 15 15 15 15 15 15 15 15 15 15 14 14 15 15 15 15 15 15
21 21 21 20 20 20 20 20 20 19 19 20 20 20 20 19 19 18 18 18 18 18 17 17 17 17 16 16 16 16 15 15 15 15 15 15 15 15 15 15 15 15 14 14 14 14 15 15 15
22 21 21 20 20 20 20 20 20 19 19 19 20 20 20 19 19 18 18 18 18 17 17 17 17 17 16 16 16 16 15 15 15 15 15 15 15 15 15 15 14 15 14 14 14 14 14 15 15
22 21 20 20 20 20 20 20 20 20 19 19 20 20 20 19 19 18 18 18 18 18 17 17 17 17 16 16 16 15 15 15 15 15 15 15 15 15 15 14 14 15 15 15 14 15 14 14 15
22 21 21 20 20 20 21 20 20 20 19 19 19 19 19 19 19 19 18 18 18 17 17 17 17 17 16 16 16 15 15 15 15 15 15 15 14 14 14 14 14 14 14 14 14 14 14 14 14
21 21 21 21 21 20 21 21 21 21 20 20 19 19 19 19 19 18 18 18 18 17 17 17 17 17 16 16 16 15 15 15 15 15 15 15 15 14 14 14 14 14 14 14 14 14 14 14 14
21 21 21 21 21 21 22 22 22 21 21 21 20 20 19 19 18 18 18 18 18 17 17 17 17 16 16 16 16 15 15 15 15 15 15 14 14 14 14 14 14 14 14 14 14 14 14 14 14
21 21 21 21 22 21 22 22 22 22 22 22 21 20 19 19 18 18 18 18 17 17 17 17 17 16 16 16 16 15 15 15 15 14 14 14 14 14 14 14 14 14 14 14 14 14 14 14 14
22 22 21 21 21 22 22 22 22 23 23 23 22 21 20 19 18 18 17 17 17 17 17 17 17 16 16 16 15 15 15 15 14 14 14 14 14 14 14 14 14 14 14 13 13 13 13 13 13
22 22 22 21 22 22 22 22 24 23 22 21 21 20 19 19 18 18 17 17 17 17 17 17 16 16 16 16 15 15 15 15 14 14 14 14 14 14 14 14 14 13 13 13 13 13 13 13 13
22 22 23 23 23 22 23 23 23 22 22 21 21 20 19 19 18 18 17 17 17 17 17 17 16 16 16 15 15 15 15 14 14 14 14 14 14 14 14 14 13 13 13 13 13 13 13 13 13
23 23 23 23 22 22 23 23 24 23 22 22 21 20 20 19 18 17 17 17 17 17 17 16 16 16 16 15 15 15 14 14 14 14 14 14 14 14 13 13 13 13 13 13 13 13 13 12 12
22 22 23 23 23 23 23 24 25 25 24 23 22 21 20 19 18 17 17 17 17 17 17 16 16 16 15 15 15 15 15 14 14 14 14 14 14 13 13 13 13 13 13 13 13 12 12 12 12
23 23 23 23 23 23 23 24 24 24 24 23 22 21 19 19 18 17 17 17 17 17 16 16 16 15 15 15 15 15 15 14 14 14 14 13 13 13 13 13 13 12 12 12 12 12 12 12 12
Wind_Speed
2 1 2 2 2 2 5 4 4 5 5 6 7 6 8 8 6 7 5 6 7 8 9 11 11 12 13 13 13 13 12 13 12 12 12 12 11 10 10 9 9 9 9 8 8 8 7 8 8
2 1 2 2 1 4 5 5 7 7 7 7 7 8 10 9 8 8 6 8 9 9 10 12 12 12 13 13 13 13 13 13 13 12 12 11 11 10 10 9 9 8 8 8 8 7 7 7 7
1 2 1 0 3 4 6 6 8 9 7 5 5 7 6 7 7 6 8 9 10 10 11 13 13 13 13 13 13 13 13 12 12 11 11 10 10 10 9 9 8 8 7 7 7 7 7 7 7
1 1 1 3 8 7 6 6 7 8 7 6 7 8 7 7 6 9 10 10 11 11 12 13 12 13 13 13 13 12 12 12 11 10 10 9 9 8 8 8 7 7 7 7 7 7 6 6 6
1 1 3 6 8 6 5 5 4 6 5 6 8 10 9 9 12 12 11 10 10 10 11 13 12 13 13 12 12 11 11 10 10 9 9 8 8 7 7 7 7 6 6 6 6 6 7 6 6
1 2 5 7 8 7 5 5 6 10 11 10 11 12 9 10 11 11 11 10 10 10 11 12 12 12 12 12 11 11 10 9 9 8 8 8 7 7 7 7 7 6 6 6 6 6 6 6 6
1 2 5 9 9 7 6 5 6 9 10 8 7 10 9 10 10 10 11 10 10 9 9 9 10 11 11 11 10 10 10 9 8 7 7 8 8 8 7 7 7 7 6 6 6 6 6 6 6
1 2 6 7 8 7 6 7 7 8 9 7 5 9 11 11 10 10 10 9 9 8 8 8 8 8 8 9 10 9 9 8 7 7 7 5 4 5 5 6 9 9 8 7 6 6 6 6 5
1 3 5 5 6 7 8 8 6 7 9 8 8 11 14 14 12 11 10 9 8 7 6 6 7 7 7 7 7 6 6 6 4 5 5 2 5 6 5 10 9 9 8 7 7 6 5 4 0
0 3 5 4 5 8 9 8 7 8 11 12 13 14 15 13 11 10 9 9 8 7 6 6 5 6 6 6 6 5 6 6 6 7 6 5 6 5 5 6 6 6 5 3 5 4 3 5 2
2 4 6 6 8 9 10 8 6 10 11 12 15 16 14 12 10 9 8 8 8 7 6 5 5 6 5 5 5 5 5 5 6 7 6 5 5 4 5 4 4 5 5 5 4 3 4 4 4
4 6 6 7 7 7 9 9 9 9 10 11 14 14 13 11 9 8 8 8 7 6 6 5 5 5 5 5 5 4 5 5 6 6 7 6 5 5 5 5 6 5 5 6 5 4 5 5 4
6 6 8 9 9 9 11 11 11 11 10 12 13 12 12 10 9 8 8 7 7 6 6 6 5 5 5 5 4 5 5 5 6 6 6 7 6 5 5 5 5 6 6 5 5 5 5 5 4
7 9 9 9 9 7 11 10 9 9 10 12 12 10 10 9 8 8 7 7 6 6 6 5 5 5 4 4 4 5 5 5 5 6 6 7 6 6 5 5 5 6 6 6 5 5 5 4 4
8 11 9 7 6 5 8 10 8 7 9 11 10 9 9 8 7 7 6 6 6 6 5 5 4 4 4 5 5 5 5 5 5 5 6 7 6 6 5 5 5 6 6 6 5 5 5 4 4
5 6 6 5 4 2 3 8 7 6 9 10 9 9 8 7 6 6 5 5 5 5 5 4 3 3 4 4 4 4 5 5 5 5 6 7 7 6 5 5 5 6 6 5 4 5 5 5 5
3 6 8 6 3 2 4 8 6 5 8 8 8 8 8 7 6 5 5 5 5 5 5 4 3 3 3 3 3 4 5 5 5 5 6 7 7 7 6 5 5 6 5 5 5 5 5 5 4
7 7 7 6 2 4 6 7 7 6 7 7 7 7 7 8 6 5 4 4 4 4 4 4 3 3 3 3 3 3 4 4 5 5 6 7 7 7 6 5 6 6 5 5 5 5 5 4 4
7 7 8 5 3 3 6 7 7 7 7 7 7 7 7 7 6 5 4 4 4 5 4 4 4 3 3 2 1 2 3 3 4 5 7 7 7 7 6 5 6 5 5 5 6 5 5 5 4
8 9 8 6 4 4 6 5 5 6 6 6 7 8 8 8 7 6 5 5 5 5 5 4 3 3 2 2 2 2 2 3 4 4 6 7 7 7 6 6 5 5 5 5 6 5 4 4 5
5 6 8 7 6 5 5 5 6 6 6 6 6 7 8 9 9 8 7 6 6 5 5 4 3 3 3 3 2 2 2 2 3 4 4 6 7 8 7 7 6 6 6 6 6 6 6 5 5
4 5 7 9 7 4 5 4 7 9 9 8 8 9 9 9 8 7 7 6 6 5 4 4 4 3 3 3 2 2 2 3 3 3 3 5 6 7 7 6 6 6 6 6 6 6 5 5 4
4 6 7 6 5 4 5 4 6 8 10 12 11 10 10 10 9 8 7 7 6 6 5 4 4 4 3 3 3 2 3 3 2 2 3 4 5 7 7 6 6 6 6 7 7 7 6 5 5
10 8 6 5 4 4 5 4 4 8 10 11 12 12 11 10 9 8 7 7 7 6 5 5 5 4 4 3 3 3 4 3 3 2 3 3 3 4 6 6 6 6 6 6 6 6 7 6 6
8 7 4 4 4 3 4 4 4 6 8 10 12 12 12 11 10 9 9 9 8 8 7 6 6 5 4 4 3 3 3 3 3 2 3 2 3 4 5 5 5 5 6 6 6 6 6 7 6
9 6 3 2 3 3 4 5 3 4 5 8 9 11 11 11 10 10 10 10 9 9 8 7 6 5 5 4 4 3 3 2 2 2 2 2 3 3 4 4 5 5 6 5 5 5 6 6 6
6 5 2 2 2 3 4 3 3 5 7 9 11 11 12 12 11 11 10 10 10 9 8 8 7 6 5 5 4 4 3 3 3 2 2 2 2 2 3 4 4 5 5 5 5 5 6 6 6
2 3 4 4 3 3 3 5 5 9 10 11 12 12 12 12 12 11 10 10 9 8 8 8 7 7 6 5 4 3 3 3 3 2 2 2 2 3 2 3 4 4 5 5 5 4 5 5 5
6 5 5 4 4 3 2 2 2 6 9 12 12 12 12 13 12 11 10 10 9 9 8 8 7 7 6 6 5 5 4 4 3 3 2 2 2 2 2 2 3 4 4 4 4 4 5 5 5
6 7 8 6 4 4 4 2 2 4 7 10 11 11 11 12 12 11 11 10 10 10 9 9 8 7 7 6 6 5 5 5 4 4 3 2 2 2 2 2 2 3 3 3 4 4 4 5 5
Wind_Direction
289 313 271 247 210 115 86 82 97 107 82 74 75 81 80 59 57 88 95 100 102 104 101 104 100 98 96 94 91 88 84 81 78 76 74 71 68 63 61 58 55 52 50 47 46 42 36 34 32
324 306 245 247 168 113 90 88 94 92 102 101 79 77 79 71 72 91 101 102 103 99 95 91 95 96 94 93 90 87 83 80 76 73 72 70 68 64 60 56 52 49 46 41 37 32 29 30 26
297 276 277 199 95 89 99 93 97 98 96 89 84 66 65 76 82 88 106 111 102 94 92 90 90 90 90 88 86 83 81 79 77 74 71 69 66 63 58 53 48 45 42 37 32 25 23 24 22
267 242 217 112 97 76 92 105 112 113 89 78 99 84 75 65 85 105 112 109 102 97 93 91 87 86 85 83 81 80 78 77 75 72 69 64 60 56 51 47 43 39 37 33 27 21 18 16 16
252 225 136 118 102 93 93 100 115 108 94 90 98 99 89 79 98 106 108 106 102 97 94 93 86 84 82 79 77 76 78 76 72 66 62 57 51 45 41 41 35 32 31 26 24 20 16 14 13
210 195 147 127 112 107 103 109 109 100 103 103 104 104 96 108 106 106 107 104 99 97 97 98 90 82 78 75 71 70 71 69 66 60 54 50 45 40 36 33 28 26 24 21 23 20 18 17 13
221 150 134 129 124 116 107 105 101 107 104 97 108 108 117 119 113 116 112 105 97 94 92 91 94 94 88 75 66 64 60 59 55 51 50 47 45 40 35 33 26 19 19 19 19 20 21 18 14
332 151 138 134 131 116 116 109 97 96 97 99 102 116 130 132 129 121 113 109 105 101 95 91 87 83 83 85 72 61 56 50 48 48 45 42 64 63 43 40 36 26 24 21 19 17 14 10 12
263 164 141 128 127 120 128 121 101 98 106 95 91 107 125 133 134 129 124 119 112 104 101 99 91 80 73 71 73 70 69 53 50 69 62 12 36 40 49 41 33 27 23 25 23 13 357 322 304
238 139 106 88 110 122 120 112 116 120 110 107 107 112 127 138 139 134 129 122 117 110 106 100 92 84 77 66 67 54 56 49 42 38 35 34 42 36 30 76 47 31 16 30 29 347 294 286 329
78 102 105 95 102 118 114 103 108 125 116 124 128 132 139 140 138 130 121 114 108 108 104 96 92 83 76 75 60 52 51 48 48 38 36 33 36 35 30 27 40 25 2 11 13 330 5 356 4
100 92 105 104 101 111 113 113 104 99 106 121 127 133 138 139 132 127 119 114 113 104 98 94 90 87 76 68 63 55 54 49 47 38 32 36 36 29 32 27 21 15 18 9 2 360 14 4 359
109 107 99 101 94 94 104 108 106 96 106 119 124 129 131 127 124 121 119 120 116 111 106 97 88 79 76 68 58 61 57 47 55 41 33 35 32 30 27 29 23 18 14 14 9 8 15 6 8
115 115 110 104 97 98 108 107 107 103 118 125 129 130 129 126 123 124 127 123 117 116 110 104 95 87 77 77 72 65 62 58 44 39 35 32 33 29 21 30 28 21 15 12 4 15 6 10 17
124 120 105 93 99 108 118 103 107 120 134 133 133 129 127 127 126 124 120 118 116 118 116 106 101 96 82 72 68 68 58 49 45 38 30 32 31 27 27 24 27 21 15 16 11 16 10 21 29
138 136 121 97 95 107 150 124 116 134 148 142 139 134 135 132 127 118 115 115 118 125 122 116 119 109 89 77 69 67 59 50 46 40 32 29 31 31 27 25 26 17 16 20 21 17 21 30 31
154 149 133 119 79 128 140 133 132 143 154 152 148 145 144 142 134 124 122 120 128 132 131 127 123 117 106 96 86 69 66 55 47 41 34 25 25 23 32 25 18 18 19 21 21 28 19 31 32
152 144 133 128 97 132 131 133 140 152 162 162 159 156 153 148 144 141 135 134 139 135 133 128 130 132 125 120 103 86 65 56 49 43 35 26 24 22 23 26 22 18 25 23 24 30 28 26 23
147 142 129 116 103 125 138 142 156 163 167 165 169 168 161 152 151 150 149 155 151 142 138 134 141 142 144 125 105 81 68 55 51 46 38 32 30 26 29 24 26 20 28 23 23 24 31 32 19
146 137 126 115 120 136 142 145 163 171 178 176 179 177 173 165 165 162 161 158 155 146 142 138 132 136 136 110 89 82 72 61 58 50 46 35 36 33 30 32 34 32 30 31 27 24 19 29 20
138 149 146 141 142 152 148 163 180 179 187 184 190 187 180 181 181 171 164 159 157 153 146 139 134 133 130 130 120 119 109 99 78 61 48 37 37 37 34 36 36 33 35 35 27 23 22 21 27
147 148 151 158 166 161 199 183 181 181 192 196 195 193 188 183 185 172 167 166 163 156 147 142 133 120 118 127 128 118 100 82 66 56 58 57 48 42 37 39 38 41 40 39 33 32 25 16 23
130 143 153 166 171 170 195 210 176 179 202 201 197 195 190 184 184 177 174 168 161 149 146 142 130 117 111 112 109 115 98 95 90 80 67 58 53 43 41 41 42 43 43 41 39 35 29 26 20
136 138 143 172 194 201 194 218 198 194 207 196 193 194 190 184 179 174 166 163 154 145 145 143 135 122 117 123 120 111 104 102 96 83 72 67 64 50 48 44 46 45 43 41 38 39 41 33 28
172 174 173 185 202 192 166 224 223 196 203 198 191 188 185 181 178 174 171 170 163 159 157 154 147 139 138 135 128 118 113 111 102 93 82 65 62 55 47 44 45 45 42 41 39 42 38 40 36
189 215 236 219 199 165 185 224 192 169 194 193 188 182 180 181 180 178 177 174 169 167 166 164 156 149 147 145 136 127 123 118 101 88 79 73 60 50 48 45 49 48 42 41 41 38 40 36 38
187 213 299 287 222 222 201 212 204 181 190 188 186 184 186 184 181 180 177 176 174 172 172 171 166 159 157 154 146 140 134 123 114 114 97 84 70 58 56 58 56 53 46 40 38 39 38 34 30
249 188 203 231 221 225 214 224 207 187 193 189 189 189 187 184 182 179 176 178 177 173 172 174 173 167 164 163 158 147 145 137 128 123 107 93 75 67 74 62 58 53 48 45 39 37 28 31 35
176 198 225 238 261 265 241 209 186 196 194 193 193 190 186 184 182 178 175 177 174 172 174 175 176 173 170 170 165 161 157 155 152 135 125 116 93 93 86 70 57 51 43 41 41 27 25 18 19
230 228 223 234 232 253 272 266 119 195 195 196 193 187 186 184 181 177 174 174 175 178 180 180 179 177 175 176 175 173 166 169 164 151 149 138 113 96 79 77 63 50 36 28 25 19 11 6 3
Height
1514 1514 1514 1515 1513 1513 1516 1516 1514 1516 1518 1521 1521 1521 1522 1526 1529 1539 1541 1539 1540 1540 1541 1541 1542 1542 1542 1543 1543 1542 1543 1543 1543 1542 1542 1542 1542 1541 1541 1541 1540 1540 1539 1538 1538 1537 1537 1537 1536
1514 1514 1515 1515 1512 1518 1521 1516 1517 1518 1521 1523 1523 1524 1525 1531 1535 1538 1539 1540 1542 1542 1543 1543 1543 1543 1544 1544 1544 1544 1544 1544 1544 1543 1543 1543 1542 1542 1542 1541 1541 1540 1539 1539 1538 1538 1537 1537 1536
1514 1514 1516 1512 1513 1518 1521 1518 1519 1522 1523 1524 1526 1528 1530 1535 1538 1539 1541 1542 1543 1544 1545 1544 1545 1545 1545 1545 1545 1545 1545 1545 1545 1544 1544 1544 1543 1543 1542 1542 1541 1540 1540 1539 1538 1538 1537 1537 1536
1515 1516 1516 1514 1518 1518 1518 1519 1521 1522 1525 1526 1527 1531 1535 1539 1540 1542 1543 1544 1545 1546 1547 1546 1546 1546 1547 1547 1547 1547 1547 1546 1546 1546 1545 1545 1544 1544 1543 1543 1542 1541 1540 1539 1538 1538 1537 1537 1536
1516 1516 1514 1517 1520 1520 1520 1522 1523 1522 1525 1528 1529 1533 1539 1542 1543 1544 1545 1547 1548 1549 1549 1549 1548 1548 1548 1548 1548 1548 1548 1548 1547 1547 1546 1546 1545 1545 1544 1543 1542 1541 1540 1540 1539 1538 1537 1537 1536
1517 1514 1516 1521 1522 1521 1523 1524 1524 1525 1528 1530 1532 1535 1542 1545 1546 1546 1547 1549 1550 1551 1551 1551 1550 1550 1550 1550 1550 1550 1550 1549 1549 1548 1547 1547 1546 1545 1544 1544 1543 1542 1541 1540 1539 1538 1538 1537 1536
1517 1513 1516 1518 1522 1523 1524 1525 1525 1527 1529 1532 1534 1537 1544 1547 1548 1549 1550 1551 1552 1552 1553 1554 1554 1553 1552 1552 1552 1552 1551 1551 1550 1549 1548 1548 1547 1546 1545 1544 1543 1542 1541 1540 1539 1538 1538 1537 1536
1517 1515 1517 1518 1521 1524 1525 1527 1529 1529 1532 1536 1537 1539 1544 1548 1549 1551 1552 1553 1554 1554 1555 1556 1556 1556 1556 1555 1554 1553 1553 1552 1551 1550 1549 1549 1548 1547 1546 1545 1543 1542 1541 1540 1539 1539 1538 1537 1536
1518 1517 1519 1520 1522 1524 1526 1528 1531 1533 1534 1537 1539 1541 1545 1549 1551 1553 1554 1555 1556 1557 1557 1558 1558 1557 1557 1557 1556 1555 1554 1553 1553 1552 1550 1550 1550 1549 1548 1545 1544 1543 1542 1540 1539 1538 1538 1537 1536
1518 1518 1520 1521 1521 1524 1527 1529 1531 1534 1536 1539 1542 1545 1548 1550 1552 1554 1555 1556 1557 1558 1559 1559 1559 1559 1559 1558 1558 1557 1556 1555 1554 1553 1552 1551 1550 1549 1548 1546 1544 1543 1542 1541 1539 1538 1538 1538 1538
1518 1519 1522 1524 1525 1526 1528 1531 1533 1534 1537 1540 1543 1547 1550 1552 1554 1555 1557 1558 1559 1560 1560 1561 1561 1561 1560 1560 1559 1558 1557 1556 1555 1554 1553 1552 1551 1550 1549 1548 1546 1545 1543 1542 1541 1540 1539 1539 1537
1520 1523 1524 1526 1528 1529 1530 1533 1536 1537 1541 1543 1546 1549 1551 1554 1555 1557 1558 1559 1560 1561 1562 1562 1562 1562 1562 1561 1560 1559 1559 1558 1557 1555 1554 1553 1552 1551 1550 1549 1547 1546 1544 1542 1542 1540 1540 1539 1538
1522 1525 1527 1529 1531 1532 1533 1536 1538 1542 1544 1546 1548 1551 1553 1555 1557 1558 1560 1561 1562 1562 1563 1563 1563 1563 1563 1562 1561 1561 1560 1559 1558 1556 1555 1554 1553 1552 1551 1550 1547 1547 1545 1544 1542 1541 1540 1539 1538
1524 1526 1529 1531 1532 1535 1535 1538 1540 1545 1547 1549 1550 1553 1555 1556 1558 1560 1561 1562 1563 1564 1564 1564 1564 1564 1564 1564 1563 1562 1561 1559 1559 1558 1556 1555 1554 1553 1551 1551 1548 1547 1546 1544 1543 1542 1540 1540 1538
1526 1527 1530 1533 1534 1537 1537 1541 1544 1548 1549 1550 1552 1554 1556 1558 1559 1561 1562 1563 1564 1565 1565 1565 1565 1565 1565 1565 1564 1563 1562 1561 1560 1558 1558 1557 1555 1554 1552 1552 1550 1548 1547 1546 1544 1543 1541 1540 1539
1526 1528 1533 1536 1537 1538 1539 1546 1547 1549 1550 1551 1553 1555 1557 1559 1560 1561 1563 1564 1565 1565 1566 1566 1566 1566 1566 1565 1564 1564 1563 1562 1561 1560 1559 1558 1556 1555 1553 1552 1551 1549 1548 1546 1545 1544 1543 1542 1540
1528 1532 1535 1538 1539 1538 1539 1545 1548 1550 1550 1552 1553 1555 1557 1559 1561 1562 1563 1564 1565 1566 1566 1567 1566 1566 1566 1565 1565 1564 1564 1562 1562 1561 1559 1559 1557 1556 1555 1553 1551 1550 1549 1547 1546 1544 1544 1543 1541
1531 1532 1535 1539 1540 1539 1540 1544 1548 1550 1551 1552 1553 1555 1557 1558 1561 1562 1563 1564 1565 1566 1567 1567 1566 1567 1566 1566 1566 1565 1564 1564 1563 1561 1560 1559 1558 1557 1556 1554 1553 1551 1550 1548 1547 1546 1544 1543 1543
1526 1530 1535 1540 1541 1541 1542 1545 1547 1550 1551 1551 1553 1555 1556 1558 1560 1562 1563 1564 1565 1566 1567 1567 1567 1567 1567 1566 1566 1566 1565 1564 1563 1562 1561 1560 1559 1557 1556 1555 1554 1552 1551 1550 1549 1547 1546 1545 1544
1527 1532 1538 1541 1542 1543 1544 1546 1546 1549 1550 1551 1552 1554 1556 1558 1560 1561 1562 1563 1565 1566 1566 1567 1567 1567 1567 1566 1566 1566 1565 1565 1563 1562 1561 1561 1560 1558 1557 1556 1555 1553 1552 1551 1549 1548 1547 1546 1545
1530 1532 1536 1541 1544 1543 1544 1548 1547 1547 1549 1551 1552 1553 1555 1557 1558 1560 1561 1563 1564 1565 1566 1566 1567 1566 1566 1566 1566 1565 1565 1565 1564 1563 1562 1561 1560 1559 1558 1557 1556 1555 1554 1552 1550 1549 1548 1548 1547
1535 1533 1534 1538 1541 1544 1543 1549 1542 1543 1546 1548 1550 1552 1553 1555 1557 1559 1560 1562 1563 1564 1565 1566 1566 1566 1566 1566 1566 1566 1566 1565 1564 1564 1563 1562 1561 1560 1558 1558 1557 1556 1554 1553 1552 1550 1550 1549 1548
1533 1534 1534 1536 1538 1541 1540 1542 1540 1540 1542 1543 1546 1549 1551 1553 1555 1557 1559 1560 1562 1563 1564 1565 1566 1566 1565 1565 1565 1565 1565 1565 1564 1564 1563 1563 1561 1560 1559 1558 1558 1557 1555 1554 1552 1551 1550 1549 1549
1534 1536 1537 1536 1536 1545 1539 1541 1540 1535 1534 1536 1542 1546 1548 1551 1553 1555 1557 1559 1561 1562 1563 1564 1565 1565 1564 1564 1564 1564 1564 1564 1564 1563 1563 1563 1562 1561 1560 1559 1558 1557 1556 1555 1553 1552 1551 1550 1549
1533 1537 1544 1547 1546 1543 1536 1539 1535 1527 1530 1533 1538 1542 1545 1548 1551 1553 1555 1557 1559 1560 1562 1563 1564 1564 1564 1564 1564 1564 1564 1564 1563 1563 1563 1563 1562 1561 1560 1559 1559 1558 1557 1555 1554 1553 1552 1551 1550
1530 1531 1539 1546 1544 1538 1538 1537 1528 1527 1531 1534 1537 1540 1543 1546 1549 1551 1553 1555 1557 1559 1560 1562 1562 1563 1563 1563 1563 1563 1563 1563 1563 1562 1563 1563 1562 1561 1561 1560 1559 1558 1557 1556 1555 1554 1553 1552 1551
1530 1529 1527 1530 1532 1537 1532 1528 1525 1527 1530 1532 1535 1538 1541 1543 1546 1549 1551 1553 1555 1557 1559 1560 1561 1562 1562 1562 1562 1562 1562 1562 1562 1562 1562 1562 1562 1561 1561 1560 1560 1559 1558 1557 1556 1555 1554 1552 1551
1527 1526 1530 1532 1539 1539 1534 1528 1523 1523 1524 1528 1531 1534 1538 1541 1544 1546 1549 1551 1554 1555 1557 1558 1559 1560 1560 1561 1561 1561 1561 1561 1561 1561 1561 1561 1561 1560 1560 1560 1560 1559 1558 1557 1556 1555 1554 1553 1551
1530 1530 1528 1527 1528 1534 1537 1527 1512 1514 1518 1522 1526 1530 1534 1538 1541 1543 1546 1549 1551 1553 1555 1556 1557 1558 1559 1559 1559 1559 1560 1560 1560 1560 1560 1560 1560 1560 1560 1560 1560 1559 1558 1558 1556 1555 1554 1553 1552
1523 1522 1524 1530 1530 1528 1528 1524 1512 1514 1517 1520 1524 1528 1532 1535 1538 1541 1544 1546 1549 1551 1553 1554 1555 1556 1557 1557 1558 1558 1558 1558 1559 1559 1559 1560 1560 1560 1560 1560 1560 1559 1558 1557 1556 1555 1554 1553 1552